Location: Palau
(42.3086°N, 3.1507°E)
Time: 18:38:00
(UTC+00:00)

X-37B - Pass Details

Date: 13 March 2021
Orbit: 380 x 394 km, 45.0° (Epoch: 07 April)

Event Time Altitude Azimuth Distance (km) Brightness Sun altitude
Rises 18:53:11 0° 241° (WSW) 2,261 5.4 -12.2°
Reaches altitude 10° 18:55:15 10° 238° (WSW) 1,412 4.2 -12.5°
Maximum altitude 18:58:24 62° 157° (SSE) 443 0.7 -13.1°
Enters shadow 19:00:00 26° 84° (E) 812 1.6 -13.4°
